Regional Weather Roundup
Issued by NWS Charleston, WV

Home | Current Version | Previous Version | Graphics & Text | Print | Product List | Glossary On
Versions: 1 2 3 4 5 6 7 8 9 10 11 12 13 14 15 16 17 18 19 20 21 22 23 24 25 26 27 28 29 30 31 32 33 34 35 36 37 38 39 40 41 42 43 44 45 46 47 48 49 50
000
ASUS41 KRLX 051410
RWRRLX
West Virginia Regional Weather Roundup
National Weather Service Charleston WV
1000 AM EDT SUN JUL 05 2015

Note: "fair" indicates few or no clouds below 12,000 feet with no
significant weather and/or obstructions to visibility.

WVZ003-051500-
Northern Panhandle of West Virginia

CITY           SKY/WX    TMP DP  RH WIND       PRES   REMARKS
WHEELING       MOSUNNY   71  59  65 E6        30.15F
$$

WVZ009-051500-
Northwest West Virginia

CITY           SKY/WX    TMP DP  RH WIND       PRES   REMARKS
PARKERSBURG    MOSUNNY   68  65  90 E5        30.15S FOG
$$

WVZ006-051500-
Western West Virginia

CITY           SKY/WX    TMP DP  RH WIND       PRES   REMARKS
HUNTINGTON     CLOUDY    68  64  87 CALM      30.10S
$$

WVZ015-051500-
West Central West Virginia

CITY           SKY/WX    TMP DP  RH WIND       PRES   REMARKS
CHARLESTON     CLOUDY    71  66  84 CALM      30.10F
$$

WVZ022-031-051500-
North Central West Virginia

CITY           SKY/WX    TMP DP  RH WIND       PRES   REMARKS
CLARKSBURG     PTSUNNY   72  65  78 CALM      30.15S
MORGANTOWN     MOSUNNY   73  62  68 CALM      30.16S
$$

WVZ025-035-042-045-051500-
Southern West Virginia

CITY           SKY/WX    TMP DP  RH WIND       PRES   REMARKS
BECKLEY        CLOUDY    68  63  84 SE8       30.18S
LOGAN            N/A     70  68  94 CALM      30.10S
BLUEFIELD      CLOUDY    69  64  84 CALM      30.20S
LEWISBURG      CLOUDY    65  63  93 NE5       30.19F FOG
$$

WVZ047-051500-
Northern Mountains of West Virginia

CITY           SKY/WX    TMP DP  RH WIND       PRES   REMARKS
ELKINS         CLOUDY    64  60  87 W3        30.19F FOG
$$

WVZ052-051500-
Eastern Panhandle of West Virginia

CITY           SKY/WX    TMP DP  RH WIND       PRES   REMARKS
MARTINSBURG    CLOUDY    70  64  81 CALM      30.17S
PETERSBURG     CLOUDY    69  64  83 CALM      30.18F HAZE
$$


USA.gov is the U.S. government's official web portal to all federal, state and local government web resources and services.